Location: *
(24.1434°N, 56.8729°E)
Time: 08:56:36
(UTC+00:00)

EPKM - Pass Details

Date: 09 April 2020
Orbit: 307 x 17554 km, 25.8° (Epoch: 29 May)

Event Time Altitude Azimuth Distance (km) Brightness Sun altitude
Exits shadow 23:54:18 25° 95° (E) 957 4.1 -27.4°
Drops below altitude 10° 23:55:20 10° 87° (E) 1,411 5.3 -27.1°
Sets 23:56:41 0° 83° (E) 2,085 6.4 -26.9°
